Location: Arbon
(43.0005°N, 0.7472°E)
Time: 22:33:45
(UTC+00:00)

Altair - Pass Details

Date: 27 November 2020
Orbit: 1501 x 1682 km, 47.2° (Epoch: 26 January)

Event Time Altitude Azimuth Distance (km) Brightness Sun altitude
Rises 21:00:25 0° 237° (WSW) 4,718 10.4 -49.6°
Reaches altitude 10° 21:03:30 10° 236° (SW) 3,715 9.7 -50.1°
Enters shadow 21:05:44 20° 235° (SW) 3,008 9.1 -50.5°
Maximum altitude 21:12:49 79° 152° (SSE) 1,539 - -51.7°
Drops below altitude 10° 21:22:00 10° 67° (ENE) 3,655 - -53.2°
Sets 21:25:00 0° 67° (ENE) 4,639 - -53.7°
